KD5UIG Weather Reports


Display with metric or nautical units.
time (UTC)temp
F
wind
direction
speed
MPH
gust
MPH
rain 1hr
in
rain 24hr
in
rain mn
in
humidity
%
barometer
mb
20260904165056 95 170 2.0 10.0 0.00 0.00 0.00 52 1015.0
20260904164602 95 208 4.0 10.0 0.00 0.00 0.00 53 1015.1
20260904164055 94 183 3.0 11.0 0.00 0.00 0.00 54 1015.0
20260904163556 94 240 2.0 11.0 0.00 0.00 0.00 55 1015.0
20260904163110 92 180 3.0 11.0 0.00 0.00 0.00 56 1015.0
20260904162557 91 185 2.0 10.0 0.00 0.00 0.00 60 1015.0
20260904162056 90 190 2.0 8.0 0.00 0.00 0.00 61 1015.0
20260904161602 89 230 4.0 12.0 0.00 0.00 0.00 59 1015.0
20260904161057 90 217 3.0 12.0 0.00 0.00 0.00 58 1015.1
20260904160555 90 247 5.0 11.0 0.00 0.00 0.00 59 1015.1
20260904160105 90 188 4.0 10.0 0.00 0.00 0.00 61 1015.0
20260904155600 90 183 3.0 10.0 0.00 0.00 0.00 61 1014.9
20260904155059 89 165 3.0 12.0 0.00 0.00 0.00 61 1014.9
20260904154604 89 202 4.0 12.0 0.00 0.00 0.00 62 1015.0
20260904154058 88 219 3.0 10.0 0.00 0.00 0.00 65 1015.0
20260904153556 88 209 3.0 12.0 0.00 0.00 0.00 65 1015.0
20260904153124 88 179 3.0 13.0 0.00 0.00 0.00 66 1014.9
20260904152555 87 179 3.0 13.0 0.00 0.00 0.00 66 1015.0
20260904152056 87 178 4.0 11.0 0.00 0.00 0.00 67 1014.9
20260904151603 87 219 4.0 11.0 0.00 0.00 0.00 68 1014.9
20260904151056 86 209 4.0 10.0 0.00 0.00 0.00 70 1014.9
20260904150556 85 240 2.0 9.0 0.00 0.00 0.00 73 1014.8
20260904145556 84 184 2.0 9.0 0.00 0.00 0.00 74 1014.9
20260904145056 84 201 3.0 8.0 0.00 0.00 0.00 75 1015.0
20260904144602 84 0 1.0 6.0 0.00 0.00 0.00 76 1014.8
20260904144055 84 204 2.0 6.0 0.00 0.00 0.00 77 1014.8
20260904143555 83 212 0.0 5.0 0.00 0.00 0.00 79 1014.7
20260904143106 82 0 1.0 6.0 0.00 0.00 0.00 79 1014.7
20260904142559 82 186 1.0 6.0 0.00 0.00 0.00 79 1014.6
20260904142057 82 96 1.0 6.0 0.00 0.00 0.00 80 1014.7
20260904141610 82 163 2.0 6.0 0.00 0.00 0.00 81 1014.6
20260904141056 82 0 1.0 6.0 0.00 0.00 0.00 81 1014.6
20260904140556 81 143 1.0 7.0 0.00 0.00 0.00 82 1014.6
20260904140104 81 186 2.0 7.0 0.00 0.00 0.00 82 1014.6
20260904135556 81 132 1.0 7.0 0.00 0.00 0.00 82 1014.6
20260904135056 81 170 1.0 5.0 0.00 0.00 0.00 83 1014.6
20260904134606 80 168 1.0 5.0 0.00 0.00 0.00 84 1014.6
20260904134056 80 164 1.0 5.0 0.00 0.00 0.00 84 1014.5
20260904133556 80 157 1.0 5.0 0.00 0.00 0.00 84 1014.4
20260904133114 79 0 1.0 6.0 0.00 0.00 0.00 84 1014.4
20260904132556 79 146 0.0 6.0 0.00 0.00 0.00 84 1014.4
20260904132056 79 192 0.0 3.0 0.00 0.00 0.00 84 1014.3
20260904131616 79 142 1.0 4.0 0.00 0.00 0.00 84 1014.3
20260904131056 79 119 1.0 4.0 0.00 0.00 0.00 84 1014.2
20260904130556 79 101 1.0 5.0 0.00 0.00 0.00 84 1014.1
20260904130112 79 172 1.0 5.0 0.00 0.00 0.00 85 1014.2
20260904125559 79 148 0.0 5.0 0.00 0.00 0.00 85 1014.2
20260904125056 79 0 1.0 5.0 0.00 0.00 0.00 85 1014.1
20260904124611 79 132 0.0 4.0 0.00 0.00 0.00 85 1014.1
20260904124056 79 0 0.0 5.0 0.00 0.00 0.00 85 1014.1
20260904123558 79 186 0.0 5.0 0.00 0.00 0.00 85 1014.1
20260904123115 79 154 1.0 5.0 0.00 0.00 0.00 85 1014.1
20260904122556 78 178 1.0 3.0 0.00 0.00 0.00 85 1014.1
20260904122056 78 130 0.0 3.0 0.00 0.00 0.00 85 1014.0
20260904121603 78 0 0.0 4.0 0.00 0.00 0.00 85 1013.9
20260904121057 78 0 1.0 4.0 0.00 0.00 0.00 85 1013.8
20260904120556 78 159 0.0 3.0 0.00 0.00 0.00 84 1013.8
20260904120106 78 0 0.0 2.0 0.00 0.00 0.00 84 1013.8
20260904115556 78 182 0.0 2.0 0.00 0.00 0.00 84 1013.7
20260904115057 78 0 0.0 2.0 0.00 0.00 0.00 84 1013.7
20260904114602 78 0 0.0 2.0 0.00 0.00 0.00 84 1013.7
20260904114058 78 0 0.0 2.0 0.00 0.00 0.00 84 1013.7
20260904113557 79 0 0.0 4.0 0.00 0.00 0.00 84 1013.6
20260904113107 79 171 0.0 4.0 0.00 0.00 0.00 84 1013.7
20260904112556 79 0 0.0 2.0 0.00 0.00 0.00 84 1013.6
20260904112059 79 172 0.0 3.0 0.00 0.00 0.00 84 1013.5
20260904111609 79 0 0.0 3.0 0.00 0.00 0.00 84 1013.6
20260904111057 79 179 0.0 4.0 0.00 0.00 0.00 84 1013.6
20260904110556 79 0 0.0 4.0 0.00 0.00 0.00 83 1013.6
20260904110109 79 167 0.0 4.0 0.00 0.00 0.00 83 1013.6
20260904105559 79 0 0.0 4.0 0.00 0.00 0.00 83 1013.6
20260904105057 79 165 0.0 4.0 0.00 0.00 0.00 83 1013.6
20260904104604 79 169 0.0 2.0 0.00 0.00 0.00 83 1013.6
20260904104056 79 174 0.0 4.0 0.00 0.00 0.00 83 1013.6
20260904103556 79 0 0.0 4.0 0.00 0.00 0.00 83 1013.6
20260904103101 79 171 0.0 3.0 0.00 0.00 0.00 82 1013.6
20260904102556 79 180 0.0 5.0 0.00 0.00 0.00 82 1013.6
20260904102055 79 0 0.0 5.0 0.00 0.00 0.00 82 1013.5
20260904101616 79 203 0.0 5.0 0.00 0.00 0.00 82 1013.4
20260904101056 79 185 0.0 6.0 0.00 0.00 0.00 82 1013.5
20260904100557 79 0 1.0 6.0 0.00 0.00 0.00 82 1013.5
20260904095555 79 0 0.0 4.0 0.00 0.00 0.00 81 1013.3
20260904095057 79 210 0.0 6.0 0.00 0.00 0.00 81 1013.3
20260904094603 79 84 1.0 8.0 0.00 0.00 0.00 81 1013.4
20260904094054 79 198 2.0 8.0 0.00 0.00 0.00 81 1013.4
20260904093554 79 192 1.0 7.0 0.00 0.00 0.00 81 1013.4
20260904093118 79 180 2.0 7.0 0.00 0.00 0.00 81 1013.3
20260904092557 79 192 1.0 6.0 0.00 0.00 0.00 81 1013.2
20260904092057 79 180 2.0 8.0 0.00 0.00 0.00 81 1013.2
20260904091601 79 156 1.0 8.0 0.00 0.00 0.00 81 1013.2
20260904091054 79 196 1.0 8.0 0.00 0.00 0.00 81 1013.2
20260904090553 79 194 1.0 6.0 0.00 0.00 0.00 81 1013.2
20260904090109 79 161 1.0 6.0 0.00 0.00 0.00 80 1013.2
20260904085559 79 196 1.0 5.0 0.00 0.00 0.00 80 1013.2
20260904085055 79 0 0.0 6.0 0.00 0.00 0.00 80 1013.2
20260904084602 79 180 2.0 9.0 0.00 0.00 0.00 80 1013.3
20260904084058 79 200 2.0 9.0 0.00 0.00 0.00 80 1013.1
20260904083557 79 180 2.0 7.0 0.00 0.00 0.00 79 1013.2
20260904083103 79 223 1.0 7.0 0.00 0.00 0.00 79 1013.2
20260904082554 80 189 1.0 5.0 0.00 0.00 0.00 79 1013.2
20260904082053 80 0 1.0 7.0 0.00 0.00 0.00 79 1013.2
20260904081602 80 205 2.0 7.0 0.00 0.00 0.00 79 1013.2
20260904081056 80 193 2.0 6.0 0.00 0.00 0.00 79 1013.2
20260904080554 80 207 2.0 9.0 0.00 0.00 0.00 78 1013.1
20260904080103 80 197 1.0 9.0 0.00 0.00 0.00 78 1013.3
20260904075554 80 213 2.0 9.0 0.00 0.00 0.00 78 1013.2
20260904075055 80 200 2.0 7.0 0.00 0.00 0.00 78 1013.1
20260904074603 80 205 1.0 7.0 0.00 0.00 0.00 77 1013.2
20260904074054 80 205 2.0 8.0 0.00 0.00 0.00 77 1013.2
20260904073556 80 197 1.0 8.0 0.00 0.00 0.00 77 1013.1
20260904073108 80 0 2.0 8.0 0.00 0.00 0.00 77 1013.0
20260904072553 80 0 1.0 8.0 0.00 0.00 0.00 76 1013.0
20260904072054 80 173 2.0 8.0 0.00 0.00 0.00 76 1013.2
20260904071600 80 202 2.0 8.0 0.00 0.00 0.00 76 1013.3
20260904071055 80 227 2.0 7.0 0.00 0.00 0.00 76 1013.3
20260904070555 80 155 1.0 5.0 0.00 0.00 0.00 75 1013.3
20260904065554 80 221 1.0 5.0 0.00 0.00 0.00 74 1013.5
20260904065059 80 0 0.0 3.0 0.00 0.00 0.00 74 1013.5
20260904064601 80 195 0.0 3.0 0.00 0.00 0.00 74 1013.5
20260904064059 80 0 0.0 5.0 0.00 0.00 0.00 74 1013.5
20260904063557 80 205 0.0 5.0 0.00 0.00 0.00 73 1013.5
20260904063103 80 0 1.0 4.0 0.00 0.00 0.00 73 1013.5
20260904062554 80 143 0.0 4.0 0.00 0.00 0.00 73 1013.5
20260904062055 80 136 0.0 4.0 0.00 0.00 0.00 72 1013.5
20260904061600 80 150 0.0 3.0 0.00 0.00 0.00 72 1013.5
20260904061054 80 146 0.0 3.0 0.00 0.00 0.00 72 1013.5
20260904060555 80 0 1.0 4.0 0.00 0.00 0.00 71 1013.6
20260904060103 80 206 0.0 4.0 0.00 0.00 0.00 71 1013.6
20260904055555 80 136 0.0 5.0 0.00 0.00 0.00 71 1013.6
20260904055056 80 228 0.0 5.0 0.00 0.00 0.00 71 1013.6
20260904054608 80 0 0.0 3.0 0.00 0.00 0.00 70 1013.6
20260904054054 80 169 0.0 3.0 0.00 0.00 0.00 70 1013.6
20260904053554 81 175 0.0 2.0 0.00 0.00 0.00 70 1013.6
20260904053102 81 175 0.0 2.0 0.00 0.00 0.00 70 1013.6
20260904052554 81 0 0.0 2.0 0.00 0.00 0.00 70 1013.5
20260904052054 81 177 0.0 4.0 0.00 0.00 0.00 70 1013.5
20260904051605 81 0 0.0 4.0 0.00 0.00 0.00 70 1013.5
20260904051054 81 179 0.0 4.0 0.00 0.00 0.00 70 1013.4
20260904050557 81 0 0.0 4.0 0.00 0.00 0.00 70 1013.5
20260904050107 81 146 0.0 5.0 0.00 0.00 0.00 70 1013.4
20260904045555 81 0 0.0 5.0 0.00 0.00 0.00 70 1013.3
20260904045055 81 204 1.0 4.0 0.00 0.00 0.00 70 1013.3
20260904044611 81 130 0.0 4.0 0.00 0.00 0.00 70 1013.2
20260904044053 81 123 0.0 4.0 0.00 0.00 0.00 70 1013.3
20260904043554 81 0 0.0 4.0 0.00 0.00 0.00 70 1013.4
20260904043059 82 0 0.0 7.0 0.00 0.00 0.00 70 1013.4
20260904042554 82 222 0.0 7.0 0.00 0.00 0.00 69 1013.3
20260904042055 82 0 0.0 6.0 0.00 0.00 0.00 69 1013.2
20260904041604 82 164 0.0 5.0 0.00 0.00 0.00 69 1013.2
20260904041055 82 154 1.0 5.0 0.00 0.00 0.00 69 1013.3
20260904040555 82 102 1.0 5.0 0.00 0.00 0.00 69 1013.3
20260904040105 82 0 0.0 4.0 0.00 0.00 0.00 69 1013.3
20260904035617 82 169 1.0 6.0 0.00 0.00 0.00 69 1013.4
20260904035057 82 0 1.0 6.0 0.00 0.00 0.00 69 1013.4
20260904034604 82 139 0.0 4.0 0.00 0.00 0.00 69 1013.4
20260904034056 83 0 0.0 4.0 0.00 0.00 0.00 69 1013.4
20260904033557 83 132 0.0 4.0 0.00 0.00 0.00 69 1013.4
20260904033105 83 161 1.0 6.0 0.00 0.00 0.00 69 1013.4
20260904032555 83 146 0.0 6.0 0.00 0.00 0.00 69 1013.4
20260904032055 83 221 1.0 6.0 0.00 0.00 0.00 69 1013.3
20260904031604 83 0 1.0 5.0 0.00 0.00 0.00 69 1013.3
20260904031055 83 246 1.0 7.0 0.00 0.00 0.00 69 1013.4
20260904030555 83 0 1.0 7.0 0.00 0.00 0.00 69 1013.4
20260904025556 84 134 1.0 7.0 0.00 0.00 0.00 68 1013.2
20260904025057 84 214 2.0 7.0 0.00 0.00 0.00 68 1013.2
20260904024614 84 171 2.0 7.0 0.00 0.00 0.00 68 1013.2
20260904024055 85 139 2.0 6.0 0.00 0.00 0.00 68 1013.0
20260904023556 85 157 1.0 6.0 0.00 0.00 0.00 67 1012.9
20260904023112 85 240 1.0 5.0 0.00 0.00 0.00 66 1012.8
20260904022556 85 183 2.0 7.0 0.00 0.00 0.00 65 1012.7
20260904022055 85 199 2.0 8.0 0.00 0.00 0.00 64 1012.7
20260904021603 86 0 1.0 8.0 0.00 0.00 0.00 64 1012.4
20260904021056 86 105 1.0 8.0 0.00 0.00 0.00 63 1012.3
20260904020556 86 133 0.0 8.0 0.00 0.00 0.00 63 1012.2
20260904020105 86 157 1.0 6.0 0.00 0.00 0.00 63 1012.2
20260904015556 86 138 1.0 7.0 0.00 0.00 0.00 63 1012.0
20260904015056 86 306 2.0 7.0 0.00 0.00 0.00 63 1011.9
20260904014608 86 0 1.0 9.0 0.00 0.00 0.00 62 1011.8
20260904014058 87 142 1.0 9.0 0.00 0.00 0.00 62 1011.8
20260904013559 87 122 1.0 7.0 0.00 0.00 0.00 62 1011.7
20260904013103 87 360 1.0 6.0 0.00 0.00 0.00 62 1011.7
20260904012556 87 150 0.0 7.0 0.00 0.00 0.00 62 1011.8
20260904012056 87 207 2.0 7.0 0.00 0.00 0.00 62 1011.8
20260904011614 87 130 2.0 5.0 0.00 0.00 0.00 62 1011.6
20260904011058 88 347 1.0 6.0 0.00 0.00 0.00 62 1011.6
20260904010559 88 124 1.0 7.0 0.00 0.00 0.00 62 1011.4
20260904010112 88 112 1.0 8.0 0.00 0.00 0.00 61 1011.5
20260904005556 88 77 2.0 8.0 0.00 0.00 0.00 61 1011.4
20260904005054 88 87 1.0 8.0 0.00 0.00 0.00 61 1011.2
20260904004600 89 215 1.0 8.0 0.00 0.00 0.00 61 1011.3
20260904004055 89 91 3.0 8.0 0.00 0.00 0.00 61 1011.3
20260904003555 89 99 2.0 7.0 0.00 0.00 0.00 61 1011.2
20260904003105 89 86 1.0 7.0 0.00 0.00 0.00 61 1011.3
20260904002555 89 0 2.0 7.0 0.00 0.00 0.00 60 1011.3
20260904002054 89 266 2.0 7.0 0.00 0.00 0.00 60 1011.3
20260904001600 90 298 1.0 6.0 0.00 0.00 0.00 60 1011.2
20260904001054 90 184 1.0 6.0 0.00 0.00 0.00 60 1011.2
20260904000554 90 90 2.0 7.0 0.00 0.00 0.00 60 1011.1
20260904000100 90 165 2.0 7.0 0.00 0.00 0.00 59 1011.0
20260903235555 90 153 1.0 9.0 0.00 0.00 0.00 59 1011.0
20260903235054 91 92 3.0 9.0 0.00 0.00 0.00 58 1011.0
20260903234600 91 189 2.0 8.0 0.00 0.00 0.00 58 1011.0
20260903234055 92 213 1.0 8.0 0.00 0.00 0.00 57 1011.0
20260903233553 92 76 2.0 9.0 0.00 0.00 0.00 57 1010.9
20260903233103 93 117 2.0 9.0 0.00 0.00 0.00 56 1010.7
20260903232554 93 105 3.0 10.0 0.00 0.00 0.00 55 1010.8
20260903232054 94 126 3.0 10.0 0.00 0.00 0.00 55 1010.8
20260903231601 94 88 1.0 7.0 0.00 0.00 0.00 54 1010.7
20260903231054 94 163 2.0 9.0 0.00 0.00 0.00 54 1010.6
20260903230554 94 105 2.0 9.0 0.00 0.00 0.00 54 1010.6
20260903230106 94 80 1.0 10.0 0.00 0.00 0.00 54 1010.5
20260903225554 95 100 2.0 10.0 0.00 0.00 0.00 54 1010.5
20260903225053 95 111 2.0 10.0 0.00 0.00 0.00 53 1010.7
20260903224603 95 233 2.0 10.0 0.00 0.00 0.00 53 1010.8
20260903224054 96 221 3.0 10.0 0.00 0.00 0.00 52 1010.7
20260903223555 97 92 3.0 9.0 0.00 0.00 0.00 52 1010.6
20260903223104 97 58 3.0 9.0 0.00 0.00 0.00 51 1010.6
20260903222555 98 202 3.0 8.0 0.00 0.00 0.00 50 1010.7
20260903222054 97 252 1.0 9.0 0.00 0.00 0.00 51 1010.6
20260903221604 97 232 2.0 9.0 0.00 0.00 0.00 51 1010.6
20260903221055 98 114 2.0 9.0 0.00 0.00 0.00 51 1010.7
20260903220556 98 205 1.0 9.0 0.00 0.00 0.00 51 1010.7
20260903220124 98 161 3.0 12.0 0.00 0.00 0.00 51 1010.7
20260903215553 98 215 2.0 12.0 0.00 0.00 0.00 51 1010.7
20260903215055 98 192 2.0 8.0 0.00 0.00 0.00 52 1010.6
20260903214604 97 175 2.0 8.0 0.00 0.00 0.00 52 1010.7
20260903214057 97 71 1.0 10.0 0.00 0.00 0.00 53 1010.9
20260903213556 96 34 3.0 13.0 0.00 0.00 0.00 54 1010.9
20260903213106 96 188 4.0 13.0 0.00 0.00 0.00 54 1010.9
20260903212557 96 194 3.0 8.0 0.00 0.00 0.00 54 1010.8
20260903212056 96 84 2.0 8.0 0.00 0.00 0.00 54 1010.9
20260903211603 95 106 1.0 8.0 0.00 0.00 0.00 56 1010.9
20260903211056 95 151 2.0 8.0 0.00 0.00 0.00 56 1011.0
20260903210556 94 272 2.0 9.0 0.00 0.00 0.00 58 1011.0
20260903210110 93 194 1.0 10.0 0.00 0.00 0.00 58 1011.1
20260903205555 93 140 2.0 10.0 0.00 0.00 0.00 58 1011.1
20260903205056 93 148 2.0 9.0 0.00 0.00 0.00 57 1011.3
20260903204603 94 106 2.0 9.0 0.00 0.00 0.00 57 1011.3
20260903204058 95 78 2.0 8.0 0.00 0.00 0.00 56 1011.3
20260903203557 95 188 2.0 8.0 0.00 0.00 0.00 55 1011.4
20260903203133 96 49 1.0 8.0 0.00 0.00 0.00 54 1011.5
20260903202558 97 95 2.0 8.0 0.00 0.00 0.00 54 1011.5
20260903202056 98 78 2.0 9.0 0.00 0.00 0.00 53 1011.6
20260903201606 98 212 3.0 9.0 0.00 0.00 0.00 53 1011.6
20260903201100 98 128 2.0 8.0 0.00 0.00 0.00 52 1011.7
20260903200556 98 185 3.0 9.0 0.00 0.00 0.00 53 1011.6
20260903200108 97 238 2.0 10.0 0.00 0.00 0.00 55 1011.7
20260903195556 96 130 3.0 10.0 0.00 0.00 0.00 57 1011.7
20260903195057 95 147 2.0 8.0 0.00 0.00 0.00 59 1011.7
20260903194602 94 117 2.0 7.0 0.00 0.00 0.00 57 1011.7
20260903194056 95 116 2.0 7.0 0.00 0.00 0.00 56 1011.9
20260903193556 96 155 2.0 7.0 0.00 0.00 0.00 56 1012.0
20260903193106 96 80 2.0 7.0 0.00 0.00 0.00 56 1012.1
20260903192557 95 32 2.0 6.0 0.00 0.00 0.00 58 1012.2
20260903192056 95 267 1.0 11.0 0.00 0.00 0.00 57 1012.2
20260903191605 95 123 2.0 11.0 0.00 0.00 0.00 56 1012.2
20260903191056 95 201 2.0 7.0 0.00 0.00 0.00 56 1012.3
20260903190559 95 153 1.0 7.0 0.00 0.00 0.00 56 1012.4
20260903190104 95 217 1.0 7.0 0.00 0.00 0.00 58 1012.4
20260903185556 94 127 1.0 7.0 0.00 0.00 0.00 56 1012.5
20260903185057 95 60 2.0 7.0 0.00 0.00 0.00 56 1012.7
20260903184603 95 208 1.0 8.0 0.00 0.00 0.00 55 1012.8
20260903184100 95 88 1.0 9.0 0.00 0.00 0.00 56 1012.9
20260903183600 95 210 2.0 10.0 0.00 0.00 0.00 58 1013.0
20260903183107 94 187 2.0 10.0 0.00 0.00 0.00 57 1012.9
20260903182559 94 136 2.0 10.0 0.00 0.00 0.00 58 1012.9
20260903182056 93 131 3.0 10.0 0.00 0.00 0.00 59 1013.0
20260903181601 94 169 2.0 6.0 0.00 0.00 0.00 58 1013.1
20260903181059 94 198 1.0 6.0 0.00 0.00 0.00 57 1013.2
20260903180558 94 154 2.0 6.0 0.00 0.00 0.00 58 1013.3
20260903180106 94 84 2.0 9.0 0.00 0.00 0.00 59 1013.3
20260903175556 94 201 3.0 9.0 0.00 0.00 0.00 58 1013.4
20260903175056 94 92 2.0 9.0 0.00 0.00 0.00 59 1013.4
20260903174601 93 208 2.0 9.0 0.00 0.00 0.00 60 1013.5
20260903174056 93 180 2.0 8.0 0.00 0.00 0.00 60 1013.4
20260903173556 93 114 2.0 9.0 0.00 0.00 0.00 60 1013.6
20260903173103 93 136 2.0 9.0 0.00 0.00 0.00 60 1013.7
20260903172556 93 91 3.0 7.0 0.00 0.00 0.00 59 1013.8
20260903172056 93 212 2.0 6.0 0.00 0.00 0.00 60 1013.7
20260903171616 93 58 1.0 7.0 0.00 0.00 0.00 60 1013.7
20260903171100 93 216 1.0 7.0 0.00 0.00 0.00 61 1013.8
20260903170556 93 77 2.0 10.0 0.00 0.00 0.00 60 1013.9
20260903170104 93 332 2.0 10.0 0.00 0.00 0.00 62 1013.8
20260903165557 92 204 1.0 7.0 0.00 0.00 0.00 63 1013.7